TimeMST,TemperatureF,Dew PointF,Humidity,Sea Level PressureIn,VisibilityMPH,Wind Direction,Wind SpeedMPH,Gust SpeedMPH,PrecipitationIn,Events,Conditions,WindDirDegrees,DateUTC
12:55 AM,57.9,37.9,47,29.87,10.0,Calm,Calm,-,N/A,,Clear,0,2011-11-20 07:55:00
1:55 AM,55.0,41.0,59,29.87,10.0,Calm,Calm,-,N/A,,Partly Cloudy,0,2011-11-20 08:55:00
2:55 AM,57.9,37.0,46,29.87,10.0,NNW,10.4,-,N/A,,Clear,330,2011-11-20 09:55:00
3:55 AM,57.0,36.0,45,29.88,10.0,NNW,6.9,-,N/A,,Clear,330,2011-11-20 10:55:00
4:20 AM,32.0,32.0,100,-9999,-9999.0,North,-9999.0,-,N/A,,Unknown,0,2011-11-20 11:20:00
4:55 AM,55.9,36.0,47,29.88,10.0,Calm,Calm,-,N/A,,Partly Cloudy,0,2011-11-20 11:55:00
5:55 AM,54.0,39.0,57,29.90,10.0,Calm,Calm,-,N/A,,Mostly Cloudy,0,2011-11-20 12:55:00
6:55 AM,55.9,37.9,51,29.91,10.0,ENE,3.5,-,N/A,,Overcast,70,2011-11-20 13:55:00
7:55 AM,57.0,37.9,49,29.95,10.0,Calm,Calm,-,N/A,,Overcast,0,2011-11-20 14:55:00
8:55 AM,60.1,37.0,42,29.96,10.0,NNW,6.9,-,N/A,,Overcast,340,2011-11-20 15:55:00
9:55 AM,63.0,37.9,40,29.98,10.0,NNE,3.5,-,N/A,,Scattered Clouds,20,2011-11-20 16:55:00
10:55 AM,64.0,37.9,38,29.99,10.0,NW,6.9,-,N/A,,Overcast,320,2011-11-20 17:55:00
11:55 AM,66.9,37.0,33,29.98,10.0,NNW,6.9,-,N/A,,Overcast,330,2011-11-20 18:55:00
12:55 PM,66.9,39.0,36,29.95,10.0,North,5.8,-,N/A,,Partly Cloudy,10,2011-11-20 19:55:00
1:55 PM,69.1,39.0,33,29.93,10.0,Calm,Calm,-,N/A,,Clear,0,2011-11-20 20:55:00
2:55 PM,69.1,41.0,36,29.91,10.0,NW,4.6,-,N/A,,Clear,310,2011-11-20 21:55:00
3:00 PM,-9999,-9999,N/A,-9999,-9999.0,North,-9999.0,-,N/A,,Unknown,0,2011-11-20 22:00:00
3:55 PM,69.1,42.1,38,29.91,10.0,Calm,Calm,-,N/A,,Clear,0,2011-11-20 22:55:00
4:55 PM,68.0,42.1,39,29.92,10.0,West,4.6,-,N/A,,Clear,260,2011-11-20 23:55:00
5:55 PM,66.0,41.0,40,29.92,10.0,Calm,Calm,-,N/A,,Clear,0,2011-11-21 00:55:00
6:55 PM,64.9,41.0,42,29.91,10.0,Calm,Calm,-,N/A,,Clear,0,2011-11-21 01:55:00
7:55 PM,63.0,43.0,48,29.92,10.0,SE,3.5,-,N/A,,Clear,140,2011-11-21 02:55:00
8:55 PM,63.0,48.9,60,29.94,10.0,SE,11.5,-,N/A,,Clear,140,2011-11-21 03:55:00
9:55 PM,63.0,51.1,65,29.94,10.0,SSE,9.2,-,N/A,,Clear,150,2011-11-21 04:55:00
10:55 PM,61.0,48.0,62,29.95,10.0,SSE,10.4,-,N/A,,Clear,150,2011-11-21 05:55:00
11:55 PM,60.1,48.9,67,29.95,10.0,SSE,9.2,-,N/A,,Clear,160,2011-11-21 06:55:00